Location: Unspecified
(0.0000°N, 0.0000°E)
Time: 13:30:39
(UTC+00:00)

ISS - Pass Details

Date: 17 September 2019
Orbit: 411 x 421 km, 51.6° (Epoch: 18 September)

Event Time Altitude Azimuth Distance (km) Brightness Sun altitude
Rises 05:11:15 0° 346° (NNW) 2,339 -0.1 -10.9°
Reaches altitude 10° 05:13:39 10° 2° (N) 1,482 -0.9 -10.3°
Maximum altitude 05:16:16 21° 54° (NE) 983 -1.1 -9.6°
Drops below altitude 10° 05:18:54 10° 106° (ESE) 1,492 0.4 -8.9°
Sets 05:21:19 0° 123° (ESE) 2,359 1.1 -8.3°
